Probability
0 0 0 0 0 0 1 1 2 3 6 9 14 19 19 17 12 7 5 5 5 3 2 2 1 1 0 0 0 0 0 0 0 0 0 0 0 0 1 2 2 2 1 0
0 0 0 0 0 0 1 2 3 5 8 11 14 17 17 14 9 5 4 4 4 3 2 2 2 2 1 0 0 0 0 0 0 0 0 0 0 0 0 1 1 1 0 0
0 0 0 0 0 0 1 2 3 5 8 11 13 15 14 11 7 5 4 4 2 1 1 2 2 2 1 0 0 0 0 0 0 0 0 0 0 0 0 0 0 1 0 0
0 0 0 0 0 0 1 1 2 5 9 11 11 12 12 9 7 7 7 5 2 1 1 1 1 1 1 0 0 0 0 0 0 0 0 0 0 0 0 0 0 0 0 0
0 0 0 0 0 0 0 0 2 6 9 10 9 8 8 7 7 7 7 5 2 2 1 1 0 0 0 0 0 0 0 0 0 0 0 0 0 0 0 0 0 0 0 0
0 0 0 0 0 0 0 1 3 6 7 5 4 5 5 5 5 5 5 3 1 1 1 1 1 1 0 0 0 0 0 0 0 0 0 0 0 0 0 0 0 0 0 0
0 0 0 0 0 0 1 2 4 5 3 1 1 2 4 4 4 3 3 1 0 0 0 1 2 1 0 0 0 0 0 0 0 0 0 0 0 0 0 0 0 0 0 0
0 0 1 1 1 2 3 4 4 4 3 1 1 2 3 4 3 3 2 1 0 0 0 1 1 0 0 0 0 0 0 0 0 0 0 0 0 0 0 0 0 0 0 0
1 1 2 2 2 2 3 3 3 4 3 2 2 2 3 3 3 3 2 1 0 0 0 0 0 0 0 0 0 0 0 0 0 0 0 0 0 0 0 0 0 0 0 0
2 2 2 1 1 1 1 1 2 2 1 1 1 1 2 3 3 3 3 1 0 0 0 0 0 0 0 0 0 0 0 0 0 0 0 0 0 0 0 0 0 0 0 0
2 1 1 0 0 0 0 1 2 1 0 0 0 0 2 3 3 3 3 2 1 1 1 1 0 0 0 0 0 0 0 0 0 0 0 0 0 0 0 0 0 0 0 0
2 1 0 0 0 0 0 1 2 1 0 0 0 0 1 2 3 3 3 3 2 2 3 2 1 0 0 0 0 0 0 0 0 0 0 0 0 0 0 0 0 0 0 0
1 0 0 1 0 0 0 1 1 0 0 0 0 0 0 1 3 3 3 3 3 3 3 3 1 0 0 0 0 0 0 0 0 0 0 0 0 0 0 0 0 0 0 0
2 1 0 0 0 0 0 0 0 0 0 0 0 0 0 1 3 3 3 3 3 3 3 3 2 1 0 0 0 0 0 0 0 0 0 0 0 0 0 0 0 0 0 0
2 1 1 1 0 0 0 0 0 0 0 0 0 0 0 2 3 3 3 3 3 3 3 3 2 1 0 0 0 0 0 0 0 0 0 0 0 0 0 0 0 0 0 0
1 1 1 2 1 0 0 0 0 0 0 0 0 0 0 1 3 3 3 3 3 3 3 3 2 1 0 0 0 0 0 0 0 0 0 0 0 0 0 0 0 0 0 0
1 0 1 2 2 0 0 0 0 0 0 0 0 0 0 1 2 2 2 3 3 3 2 2 2 1 0 0 0 0 0 0 0 0 0 0 0 0 0 0 0 0 0 0
1 0 1 1 1 0 0 0 0 0 0 0 0 0 0 0 1 1 1 1 2 1 1 1 1 0 0 0 0 0 0 0 0 0 0 0 0 0 0 0 0 0 0 0
1 0 0 0 0 0 0 0 0 0 0 0 0 0 0 0 0 0 0 0 0 0 0 0 0 0 0 0 0 0 0 0 0 0 0 0 0 0 0 0 0 0 0 0
0 0 0 0 0 0 0 0 0 0 0 0 0 0 0 0 0 0 0 0 0 0 0 0 0 0 0 0 0 0 0 0 0 0 0 0 0 0 0 0 0 0 0 0
0 0 0 0 0 0 0 0 0 0 0 0 0 0 0 0 0 0 0 0 0 0 0 0 0 0 0 0 0 0 0 0 0 0 0 0 0 0 0 0 0 0 0 0
0 0 0 0 0 0 0 0 0 0 0 0 0 0 0 0 0 0 0 0 0 0 0 0 0 0 0 0 0 0 0 0 0 0 0 0 0 0 0 0 0 0 0 0
0 0 0 0 0 0 0 0 0 0 0 0 0 0 0 0 0 0 0 0 0 0 0 0 0 0 0 0 0 0 0 0 0 0 0 0 0 0 0 0 0 0 0 0
0 0 1 1 1 0 0 0 0 0 0 0 0 0 0 0 0 0 0 0 0 0 0 0 0 0 0 0 0 0 0 0 0 0 0 0 0 0 0 0 0 0 0 0
1 1 2 2 1 0 0 0 0 0 0 0 0 0 0 0 0 0 0 0 0 0 0 0 0 0 0 0 0 0 0 0 0 0 0 0 0 0 0 0 0 0 0 0
2 2 2 1 0 0 0 0 0 0 0 0 0 0 0 0 0 0 0 0 0 0 0 0 0 0 0 0 0 0 0 0 0 0 0 0 0 0 0 0 0 0 0 0
3 3 1 0 0 0 0 0 0 0 0 0 0 0 0 0 0 0 0 0 0 0 0 0 0 0 0 0 0 0 0 0 0 0 0 0 0 0 0 0 0 0 0 0
Wind_Speed
8 8 6 5 5 4 3 4 4 0 4 6 8 9 9 9 10 11 10 10 10 9 7 6 5 4 4 4 3 3 4 4 4 4 3 3 3 4 4 4 5 4 5 5
7 8 6 6 4 4 3 4 3 5 5 7 8 9 9 9 10 11 10 9 9 9 8 7 5 4 4 3 3 3 4 4 4 3 3 3 3 4 4 5 5 5 5 6
6 7 5 3 3 3 4 6 4 3 5 8 8 9 9 9 10 10 10 9 9 8 7 6 5 4 4 3 3 4 4 4 4 3 3 3 4 4 4 4 4 5 5 6
4 4 4 1 3 3 4 5 6 7 8 7 8 8 8 8 8 9 9 9 9 8 7 6 5 4 4 4 4 4 4 4 4 3 4 4 4 4 3 3 3 3 4 5
4 3 1 1 1 1 3 4 6 7 9 9 9 10 8 7 8 9 9 8 7 7 7 6 6 5 4 4 4 4 4 4 4 4 4 4 4 4 3 3 2 3 3 4
4 3 1 0 2 1 3 3 5 6 7 8 7 4 5 8 9 10 9 8 7 7 7 6 5 4 4 4 4 4 4 4 4 4 4 4 4 3 2 2 2 3 3 3
5 2 2 2 2 1 1 3 5 6 6 6 4 5 10 10 10 10 9 8 7 7 6 5 5 4 4 4 4 4 4 4 4 4 3 4 3 2 1 2 3 3 2 2
3 1 2 5 3 4 5 6 7 8 8 9 11 12 12 11 11 10 9 8 7 6 6 5 4 4 5 5 4 4 5 5 4 3 3 4 2 2 1 2 2 1 1 1
3 4 6 7 7 6 6 7 8 9 10 10 11 11 11 11 10 9 8 7 6 7 7 5 4 4 5 5 4 5 5 4 3 3 3 2 1 1 1 1 1 1 1 1
5 7 7 7 7 7 8 8 9 10 10 10 11 12 11 10 9 8 7 7 7 7 7 6 5 5 5 5 5 5 5 4 3 3 3 2 1 1 1 1 1 0 0 0
5 6 7 7 7 7 8 9 10 10 10 10 11 11 11 9 9 8 7 6 6 6 6 6 6 5 5 5 5 5 4 3 3 3 3 3 2 2 2 3 3 2 3 2
3 6 5 7 7 8 8 9 10 10 10 10 10 10 10 9 8 7 8 7 7 7 6 7 7 6 5 6 5 4 3 3 2 2 3 3 3 2 2 1 2 2 2 2
5 7 8 8 8 8 8 9 9 10 10 10 9 9 9 8 8 7 7 7 7 7 6 6 6 6 6 6 6 4 3 2 2 3 3 3 3 4 3 3 2 2 2 1
7 7 8 8 8 8 9 10 10 10 10 10 9 9 9 9 8 7 7 7 7 7 7 7 6 6 6 6 5 5 4 3 2 2 3 3 3 3 4 4 4 4 5 7
8 7 8 9 9 9 9 9 9 9 9 9 9 8 8 8 8 7 7 7 7 7 7 7 7 6 6 6 5 4 3 3 3 2 3 3 3 4 3 3 3 3 3 5
8 8 9 8 9 9 9 9 9 9 9 9 8 8 8 8 7 7 7 7 7 7 6 6 6 6 6 5 5 4 3 3 3 3 3 3 4 3 3 3 3 3 4 5
8 8 9 9 9 9 9 9 8 9 9 9 9 8 8 8 8 7 7 7 6 6 6 6 6 6 6 6 6 5 5 5 6 6 5 4 4 3 3 3 3 3 4 4
7 8 8 8 8 9 9 9 9 9 8 9 9 9 8 8 8 8 7 7 6 6 6 6 6 6 6 6 5 5 4 4 5 5 4 4 4 4 4 4 4 4 3 5
8 8 8 8 8 8 8 8 8 9 9 9 9 9 8 8 7 7 7 7 7 7 7 7 7 6 5 5 5 5 5 5 5 5 5 4 5 5 5 5 5 5 5 4
9 9 8 8 8 8 8 8 8 8 8 9 8 8 8 7 7 7 7 7 6 5 6 6 8 7 7 7 7 6 6 6 6 5 5 6 6 6 6 6 6 6 5 5
9 9 9 8 8 8 8 9 8 8 8 8 9 8 8 8 7 7 7 6 6 6 6 7 6 6 6 6 7 8 7 7 7 6 6 6 6 6 6 6 6 6 5 5
8 7 8 8 8 7 7 7 8 8 8 8 8 8 8 8 8 8 8 5 5 6 6 7 7 7 7 7 7 8 8 8 7 6 6 7 7 7 7 6 6 6 6 5
8 7 7 7 7 7 7 7 7 7 8 8 8 8 8 6 6 6 6 6 6 8 8 7 7 9 9 8 8 8 8 8 8 7 7 7 7 7 7 8 7 7 6 6
7 7 6 6 7 7 7 7 6 6 7 7 7 7 7 6 6 6 5 7 8 9 7 6 10 11 10 8 9 8 8 8 8 8 8 8 8 8 8 7 7 7 7 8
7 7 7 6 6 6 7 6 7 7 7 6 7 8 7 6 6 5 4 6 9 10 8 8 12 13 10 9 9 9 9 8 8 8 8 8 8 8 7 7 7 7 7 7
7 6 6 5 3 3 5 6 5 5 5 5 5 5 5 5 5 5 4 7 10 9 8 6 8 10 10 10 11 10 9 9 9 9 9 9 10 9 8 8 9 7 7 7
7 6 5 5 5 5 5 5 4 5 5 5 4 5 5 5 5 5 6 6 6 8 8 7 8 9 10 10 10 10 9 9 9 9 8 8 8 8 9 10 8 7 7 8
Wind_Direction
262 270 265 269 273 286 301 304 286 66 118 132 129 126 131 130 131 133 141 140 141 136 131 130 125 119 115 114 112 110 110 109 104 98 86 77 64 56 45 34 41 39 37 42
275 265 261 267 291 312 346 3 46 89 77 95 114 117 126 134 141 142 144 146 144 140 141 140 137 132 127 126 130 128 117 112 105 102 93 79 76 66 53 42 39 41 42 51
262 257 237 249 325 344 20 19 18 69 112 123 120 126 137 142 144 144 145 146 144 143 143 140 137 136 140 142 140 127 118 111 109 104 91 77 76 73 61 50 48 47 50 60
268 273 267 32 27 43 55 49 57 91 115 119 117 121 127 131 137 139 140 140 141 142 141 135 132 138 141 133 124 122 118 114 112 106 96 85 80 74 69 65 58 51 57 61
264 254 235 109 20 68 84 69 73 100 113 116 120 117 117 125 129 128 132 134 136 140 143 143 142 142 137 136 133 133 125 114 106 97 93 88 81 73 72 75 70 62 67 66
271 274 269 152 356 19 125 111 92 110 121 129 147 142 131 128 122 120 124 127 131 137 136 135 138 141 139 135 129 121 112 103 90 86 88 89 86 81 84 91 90 80 66 62
272 269 95 13 8 295 257 103 95 101 111 127 118 97 125 128 123 124 126 129 132 133 130 130 135 138 136 126 116 112 107 101 92 87 91 97 94 87 88 93 83 80 76 68
289 263 71 22 49 54 80 93 94 95 99 103 103 112 122 125 125 128 130 132 135 131 123 122 130 140 132 120 114 112 109 107 105 96 87 90 95 99 108 122 121 123 130 135
46 81 85 64 78 93 105 100 101 103 108 114 118 125 126 126 128 130 132 135 138 132 128 128 136 138 128 124 124 119 112 114 115 104 93 92 103 129 153 186 175 178 174 152
104 110 105 96 95 93 95 100 104 112 119 122 124 126 129 130 132 135 135 139 140 136 136 137 138 131 127 127 122 121 124 125 128 131 126 113 69 54 60 31 21 325 193 143
118 127 121 107 101 99 103 108 110 112 117 123 128 132 133 134 138 140 138 139 141 141 143 145 141 138 143 138 134 134 134 139 140 139 126 117 92 43 42 57 48 24 9 13
128 135 126 124 120 117 116 118 120 121 121 127 132 136 135 135 138 141 143 143 145 148 149 146 147 148 147 146 149 153 160 179 179 171 170 173 164 145 74 134 138 110 76 48
103 112 117 122 123 123 126 127 126 126 127 128 131 136 136 136 138 143 145 149 151 152 153 154 155 156 156 158 162 171 183 192 205 194 188 199 191 186 178 192 226 244 243 237
114 121 129 126 124 127 128 128 126 126 129 129 133 138 139 142 146 150 153 155 154 154 159 161 161 160 163 166 172 184 197 195 217 213 206 208 219 223 197 188 189 204 220 225
135 136 133 128 131 133 134 135 135 136 136 137 140 145 149 152 154 156 157 158 159 163 167 167 165 164 169 171 180 195 209 200 210 213 221 223 233 238 224 206 199 191 184 199
138 136 138 141 142 144 148 150 149 147 148 148 150 153 155 155 155 157 161 165 169 171 171 172 171 173 179 179 187 198 208 222 237 239 240 237 245 248 233 215 209 206 207 202
153 155 154 152 153 157 159 158 154 154 155 155 157 157 157 159 161 165 171 174 176 171 171 177 182 189 190 188 202 215 210 203 216 239 242 250 260 260 255 247 237 235 232 201
159 156 157 158 159 162 161 157 153 153 154 157 159 160 166 171 172 171 174 175 179 180 183 186 189 197 200 200 214 233 227 217 218 233 237 240 256 262 259 256 251 246 226 198
155 156 158 158 159 162 160 156 152 154 156 159 163 166 173 174 176 177 179 185 192 195 196 193 186 201 209 210 224 232 239 235 230 240 249 240 246 250 252 255 257 258 253 230
154 151 150 154 161 160 158 157 155 155 160 164 166 168 174 179 181 185 190 199 204 203 189 184 188 203 211 210 224 241 244 246 243 242 244 249 252 250 249 251 253 256 258 253
153 153 158 159 158 159 159 160 160 162 165 171 176 180 180 183 189 191 200 209 198 192 186 179 197 207 210 207 211 240 245 246 248 248 250 253 256 258 258 257 260 261 261 259
156 160 162 158 158 156 156 161 167 170 169 177 184 186 186 188 195 200 210 214 192 182 194 198 205 207 207 213 224 235 244 246 247 250 251 253 256 260 264 264 262 262 263 264
157 158 159 156 155 154 159 170 175 176 178 185 190 193 195 195 200 207 210 198 194 187 204 214 196 183 190 218 240 244 245 249 252 254 254 254 255 256 257 261 260 259 260 263
153 153 149 148 153 160 168 175 173 177 185 192 193 193 198 203 207 217 212 188 189 183 206 199 177 181 196 228 243 248 246 248 251 256 260 260 261 259 257 256 259 260 258 259
156 153 151 159 168 169 167 175 179 188 198 200 198 194 201 209 213 213 203 183 177 183 205 195 187 191 208 234 245 250 250 251 254 261 265 266 268 270 268 264 259 258 261 263
156 162 157 173 173 171 176 181 186 187 197 198 195 191 197 203 213 208 200 199 190 195 214 205 196 202 222 236 243 247 251 251 248 249 255 260 266 268 270 271 272 269 267 267
164 159 167 190 189 192 191 190 192 192 196 194 187 187 195 199 203 207 210 212 199 199 214 223 220 214 221 231 239 244 247 251 254 254 253 253 255 257 261 264 264 264 265 267